Location: Widewater Village at Stafford
(38.4893°N, 77.3783°W)
Time: 15:29:23
(UTC+00:00)

Tiangong - Pass Details

Date: 04 December 2022
Orbit: 383 x 386 km, 41.5° (Epoch: 05 February)

Event Time Altitude Azimuth Distance (km) Brightness Sun altitude
Rises 22:35:26 0° 267° (W) 2,248 3.4 -9.2°
Reaches altitude 10° 22:37:32 10° 272° (W) 1,396 1.9 -9.5°
Maximum altitude 22:40:37 53° 351° (N) 474 -1.8 -10.1°
Enters shadow 22:42:54 17° 66° (ENE) 1,076 -0.5 -10.5°
